Meteo pe oră la Dzialyn

Astăzi, 29 Septembrie, Marţi

Timp Temperatura Precipitaţii Vânt Presiune Umiditate
00:00 +13°C° 0 mm 3 m/s 751 mmHg 70%
01:00 +12°C° 0 mm 3 m/s 751 mmHg 73%
02:00 +12°C° 0 mm 3 m/s 750 mmHg 76%
03:00 +11°C° 0 mm 3 m/s 750 mmHg 79%
04:00 +12°C° 0 mm 2 m/s 750 mmHg 82%
05:00 +11°C° 0 mm 3 m/s 750 mmHg 82%
06:00 +11°C° 0 mm 3 m/s 750 mmHg 82%
07:00 +11°C° 0 mm 4 m/s 750 mmHg 80%
08:00 +12°C° 0 mm 4 m/s 750 mmHg 76%
09:00 +13°C° 0 mm 3 m/s 750 mmHg 73%
10:00 +16°C° 0 mm 3 m/s 750 mmHg 69%
11:00 +16°C° 0 mm 3 m/s 751 mmHg 67%
12:00 +17°C° 0 mm 3 m/s 751 mmHg 65%
13:00 +18°C° 0 mm 3 m/s 751 mmHg 64%
14:00 +17°C° 0 mm 3 m/s 751 mmHg 66%
15:00 +17°C° 0 mm 2 m/s 751 mmHg 69%
16:00 +16°C° 0 mm 1 m/s 750 mmHg 72%
17:00 +16°C° 0 mm 2 m/s 751 mmHg 74%
18:00 +15°C° 0 mm 2 m/s 751 mmHg 77%
19:00 +15°C° 0 mm 2 m/s 751 mmHg 79%
20:00 +14°C° 0 mm 2 m/s 751 mmHg 81%
21:00 +14°C° 0 mm 2 m/s 751 mmHg 82%
22:00 +14°C° 0 mm 2 m/s 751 mmHg 83%
23:00 +13°C° 0 mm 2 m/s 751 mmHg 84%

Mâine, 30 Septembrie, Miercuri

Timp Temperatura Precipitaţii Vânt Presiune Umiditate
00:00 +13°C° 0 mm 2 m/s 751 mmHg 84%
01:00 +12°C° 0 mm 2 m/s 751 mmHg 85%
02:00 +12°C° 0 mm 2 m/s 751 mmHg 84%
03:00 +12°C° 0 mm 2 m/s 751 mmHg 83%
04:00 +12°C° 0 mm 2 m/s 751 mmHg 83%
05:00 +11°C° 0 mm 3 m/s 751 mmHg 82%
06:00 +11°C° 0 mm 3 m/s 751 mmHg 81%
07:00 +11°C° 0 mm 3 m/s 751 mmHg 81%
08:00 +12°C° 0 mm 3 m/s 751 mmHg 77%
09:00 +14°C° 0 mm 4 m/s 751 mmHg 72%
10:00 +15°C° 0 mm 4 m/s 751 mmHg 68%
11:00 +17°C° 0 mm 4 m/s 750 mmHg 66%
12:00 +17°C° 0 mm 5 m/s 750 mmHg 64%
13:00 +19°C° 0 mm 5 m/s 750 mmHg 62%
14:00 +19°C° 0 mm 5 m/s 749 mmHg 63%
15:00 +17°C° 0 mm 5 m/s 749 mmHg 65%
16:00 +17°C° 0 mm 5 m/s 749 mmHg 67%
17:00 +16°C° 0 mm 5 m/s 749 mmHg 70%
18:00 +15°C° 0 mm 5 m/s 749 mmHg 74%
19:00 +14°C° 0 mm 4 m/s 749 mmHg 77%
20:00 +14°C° 0 mm 4 m/s 749 mmHg 79%
21:00 +13°C° 0 mm 4 m/s 749 mmHg 80%
22:00 +13°C° 0 mm 3 m/s 749 mmHg 82%
23:00 +13°C° 0 mm 3 m/s 748 mmHg 83%

Poimâine, 1 Octombrie, Joi

Timp Temperatura Precipitaţii Vânt Presiune Umiditate
00:00 +13°C° 0 mm 3 m/s 748 mmHg 83%
01:00 +13°C° 0 mm 3 m/s 748 mmHg 84%
02:00 +12°C° 0 mm 3 m/s 747 mmHg 86%
03:00 +12°C° 0 mm 3 m/s 747 mmHg 87%
04:00 +13°C° 0 mm 2 m/s 747 mmHg 89%
05:00 +12°C° 0 mm 3 m/s 747 mmHg 88%
06:00 +11°C° 0 mm 3 m/s 746 mmHg 86%
07:00 +11°C° 0 mm 3 m/s 746 mmHg 85%
08:00 +13°C° 0 mm 3 m/s 746 mmHg 77%
09:00 +14°C° 0 mm 3 m/s 746 mmHg 69%
10:00 +16°C° 0 mm 3 m/s 746 mmHg 61%
11:00 +15°C° 0 mm 4 m/s 746 mmHg 60%
12:00 +17°C° 0 mm 4 m/s 745 mmHg 60%
13:00 +17°C° 0 mm 4 m/s 745 mmHg 59%
14:00 +17°C° 0 mm 4 m/s 745 mmHg 62%
15:00 +15°C° 0 mm 4 m/s 745 mmHg 64%
16:00 +15°C° 0 mm 4 m/s 745 mmHg 67%
17:00 +14°C° 0 mm 4 m/s 745 mmHg 69%
18:00 +14°C° 0 mm 3 m/s 745 mmHg 71%
19:00 +13°C° 0 mm 3 m/s 745 mmHg 73%
20:00 +12°C° 0 mm 3 m/s 746 mmHg 77%
21:00 +12°C° 0 mm 3 m/s 746 mmHg 82%
22:00 +11°C° 0 mm 3 m/s 746 mmHg 87%
23:00 +11°C° 0 mm 3 m/s 746 mmHg 89%

2 Octombrie, Vineri

Timp Temperatura Precipitaţii Vânt Presiune Umiditate
00:00 +10°C° 0 mm 3 m/s 746 mmHg 92%
01:00 +10°C° 0 mm 3 m/s 746 mmHg 95%
02:00 +10°C° 0 mm 3 m/s 746 mmHg 95%
03:00 +10°C° 0 mm 3 m/s 746 mmHg 95%
04:00 +10°C° 0 mm 3 m/s 746 mmHg 95%
05:00 +10°C° 0 mm 4 m/s 746 mmHg 95%
06:00 +10°C° 0 mm 4 m/s 746 mmHg 94%
07:00 +10°C° 0 mm 4 m/s 746 mmHg 94%
08:00 +11°C° 0 mm 4 m/s 746 mmHg 90%
09:00 +12°C° 0 mm 5 m/s 746 mmHg 87%
10:00 +13°C° 0 mm 5 m/s 746 mmHg 83%
11:00 +14°C° 0 mm 5 m/s 746 mmHg 81%
12:00 +14°C° 0 mm 5 m/s 746 mmHg 79%
13:00 +15°C° 0 mm 6 m/s 746 mmHg 77%
14:00 +15°C° 0 mm 5 m/s 746 mmHg 77%
15:00 +15°C° 0 mm 5 m/s 746 mmHg 76%
16:00 +15°C° 0 mm 5 m/s 746 mmHg 76%
17:00 +14°C° 0 mm 5 m/s 746 mmHg 80%
18:00 +13°C° 0 mm 5 m/s 746 mmHg 85%
19:00 +12°C° 0 mm 4 m/s 746 mmHg 89%
20:00 +12°C° 0 mm 4 m/s 746 mmHg 90%
21:00 +12°C° 0 mm 4 m/s 746 mmHg 91%
22:00 +12°C° 0 mm 5 m/s 746 mmHg 93%
23:00 +10°C° 0 mm 5 m/s 746 mmHg 93%

3 Octombrie, Sâmbătă

Timp Temperatura Precipitaţii Vânt Presiune Umiditate
00:00 +10°C° 0 mm 5 m/s 745 mmHg 93%
01:00 +10°C° 0 mm 5 m/s 745 mmHg 94%
02:00 +10°C° 0 mm 5 m/s 745 mmHg 94%
03:00 +10°C° 0 mm 5 m/s 745 mmHg 93%
04:00 +10°C° 0 mm 6 m/s 744 mmHg 93%
05:00 +10°C° 0 mm 6 m/s 744 mmHg 92%
06:00 +11°C° 0 mm 6 m/s 744 mmHg 90%
07:00 +11°C° 0 mm 7 m/s 744 mmHg 88%
08:00 +12°C° 0 mm 7 m/s 744 mmHg 85%
09:00 +13°C° 0 mm 8 m/s 744 mmHg 82%
10:00 +16°C° 0 mm 8 m/s 743 mmHg 79%
11:00 +17°C° 0 mm 8 m/s 743 mmHg 75%
12:00 +18°C° 0 mm 8 m/s 743 mmHg 70%
13:00 +19°C° 0 mm 9 m/s 743 mmHg 66%
14:00 +20°C° 0 mm 8 m/s 742 mmHg 66%
15:00 +20°C° 0 mm 7 m/s 742 mmHg 66%
16:00 +20°C° 0 mm 6 m/s 742 mmHg 67%
17:00 +20°C° 0 mm 7 m/s 742 mmHg 68%
18:00 +18°C° 0 mm 7 m/s 742 mmHg 68%
19:00 +18°C° 0 mm 7 m/s 742 mmHg 69%
20:00 +18°C° 0 mm 8 m/s 742 mmHg 70%
21:00 +18°C° 0 mm 8 m/s 742 mmHg 70%
22:00 +18°C° 0 mm 8 m/s 742 mmHg 70%
23:00 +18°C° 0 mm 8 m/s 741 mmHg 70%

4 Octombrie, Duminică

Timp Temperatura Precipitaţii Vânt Presiune Umiditate
00:00 +18°C° 0 mm 8 m/s 741 mmHg 69%
01:00 +18°C° 0 mm 8 m/s 740 mmHg 69%
02:00 +18°C° 0 mm 8 m/s 740 mmHg 69%
03:00 +17°C° 0 mm 8 m/s 740 mmHg 69%
04:00 +17°C° 0 mm 8 m/s 739 mmHg 68%
05:00 +18°C° 0 mm 7 m/s 739 mmHg 66%
06:00 +18°C° 0 mm 7 m/s 739 mmHg 65%
07:00 +18°C° 0 mm 7 m/s 739 mmHg 63%
08:00 +21°C° 0 mm 7 m/s 740 mmHg 60%
09:00 +22°C° 0 mm 7 m/s 740 mmHg 57%
10:00 +23°C° 0 mm 8 m/s 740 mmHg 55%
11:00 +24°C° 0 mm 7 m/s 740 mmHg 52%
12:00 +24°C° 0 mm 7 m/s 740 mmHg 50%
13:00 +26°C° 0 mm 7 m/s 740 mmHg 47%
14:00 +24°C° 0 mm 6 m/s 741 mmHg 49%
15:00 +23°C° 0 mm 5 m/s 741 mmHg 51%
16:00 +22°C° 0 mm 4 m/s 742 mmHg 52%
17:00 +20°C° 0 mm 4 m/s 742 mmHg 60%
18:00 +18°C° 0 mm 3 m/s 743 mmHg 69%
19:00 +17°C° 0 mm 2 m/s 743 mmHg 77%
20:00 +16°C° 0 mm 2 m/s 744 mmHg 79%
21:00 +16°C° 0 mm 1 m/s 744 mmHg 82%
22:00 +14°C° 0 mm 0 m/s 745 mmHg 85%
23:00 +15°C° 0 mm 1 m/s 745 mmHg 86%
Arată mai mult

We Need Your Consent

Meteoprog and our Service Providers may store and access personal data such as cookies, device identifiers or other similar technologies on your device and process such data to personalise content and ads, as well as provide social media features and to analyse the traffic.

  • Store and/or access information on your device

    Cookies, device identifiers or other information can be stored or accessed on your device for the purposes indicated above.

  • Personalised ads and content, ad and content measurement, audience insights, and products development

    Ads and content can be personalised based on a profile. More data can be added to better personalise ads and content. Ad and content performance can be measured. Insights about the audience who saw the ads and content can be derived. Such data can be used to develop or improve user’s experience, systems and software.

By clicking ‘I Agree’ you will allow the use of indicated cookies, device identifiers, web beacons or other similar technologies. Your settings can be changed in the browser on your device.

For certain purposes, legitimate interests may be relied on, rather than consent. You can read more about this in our Privacy and Cookie Policy.